When you browse on this site, cookies collect data to enhance your experience and personalize the content and advertising you see.
Visit our Privacy Policy to learn more. By continuing to use the site, you agree to this use of cookies and data.
  • En España
  • Lista de países
  • Para 7 días
  • Temperatura del agua
  • Mapa Satelital
  • El tiempo en el mapa
  • Informadores
  • user-avatar
    Iniciar sesión

    Tiempo cada hora Darwin

    Hoy, 19 Julio, Viernes

    Tiempo Temperatura Precipitaciones Viento Presión Humedad
    00:00 +19°C° 0 mm 2 mps 760 mmHg 88%
    01:00 +19°C° 0 mm 3 mps 760 mmHg 90%
    02:00 +19°C° 0 mm 3 mps 759 mmHg 93%
    03:00 +18°C° 0 mm 3 mps 759 mmHg 95%
    04:00 +18°C° 0 mm 3 mps 759 mmHg 94%
    05:00 +18°C° 0 mm 3 mps 760 mmHg 93%
    06:00 +18°C° 0 mm 3 mps 760 mmHg 92%
    07:00 +20°C° 0 mm 4 mps 760 mmHg 79%
    08:00 +22°C° 0 mm 4 mps 761 mmHg 66%
    09:00 +25°C° 0 mm 5 mps 761 mmHg 53%
    10:00 +27°C° 0 mm 4 mps 760 mmHg 43%
    11:00 +30°C° 0 mm 4 mps 760 mmHg 34%
    12:00 +34°C° 0 mm 4 mps 760 mmHg 25%
    13:00 +35°C° 0 mm 4 mps 759 mmHg 23%
    14:00 +36°C° 0 mm 5 mps 758 mmHg 21%
    15:00 +36°C° 0 mm 5 mps 757 mmHg 19%
    16:00 +34°C° 0 mm 5 mps 758 mmHg 27%
    17:00 +30°C° 0 mm 5 mps 758 mmHg 36%
    18:00 +27°C° 0 mm 4 mps 758 mmHg 44%
    19:00 +26°C° 0 mm 4 mps 758 mmHg 54%
    20:00 +23°C° 0 mm 4 mps 759 mmHg 64%
    21:00 +22°C° 0 mm 4 mps 760 mmHg 74%
    22:00 +21°C° 0 mm 3 mps 760 mmHg 79%
    23:00 +21°C° 0 mm 2 mps 760 mmHg 84%

    Mañana, 20 Julio, Sábado

    Tiempo Temperatura Precipitaciones Viento Presión Humedad
    00:00 +20°C° 0 mm 2 mps 760 mmHg 89%
    01:00 +20°C° 0 mm 2 mps 760 mmHg 90%
    02:00 +20°C° 0 mm 2 mps 760 mmHg 92%
    03:00 +20°C° 0 mm 2 mps 759 mmHg 94%
    04:00 +20°C° 0 mm 2 mps 760 mmHg 94%
    05:00 +19°C° 0 mm 3 mps 760 mmHg 95%
    06:00 +19°C° 0 mm 3 mps 760 mmHg 95%
    07:00 +21°C° 0 mm 3 mps 760 mmHg 83%
    08:00 +24°C° 0 mm 3 mps 761 mmHg 71%
    09:00 +26°C° 0 mm 3 mps 761 mmHg 59%
    10:00 +29°C° 0 mm 3 mps 761 mmHg 47%
    11:00 +31°C° 0 mm 3 mps 760 mmHg 35%
    12:00 +35°C° 0 mm 3 mps 760 mmHg 23%
    13:00 +36°C° 0 mm 3 mps 759 mmHg 21%
    14:00 +36°C° 0 mm 4 mps 758 mmHg 19%
    15:00 +37°C° 0 mm 4 mps 757 mmHg 18%
    16:00 +34°C° 0 mm 4 mps 757 mmHg 29%
    17:00 +29°C° 0 mm 3 mps 758 mmHg 40%
    18:00 +26°C° 0 mm 2 mps 758 mmHg 52%
    19:00 +24°C° 0 mm 2 mps 758 mmHg 59%
    20:00 +23°C° 0 mm 2 mps 759 mmHg 65%
    21:00 +20°C° 0 mm 2 mps 759 mmHg 72%
    22:00 +20°C° 0 mm 2 mps 759 mmHg 78%
    23:00 +19°C° 0 mm 2 mps 759 mmHg 83%

    Pasado mañana, 21 Julio, Domingo

    Tiempo Temperatura Precipitaciones Viento Presión Humedad
    00:00 +19°C° 0 mm 2 mps 760 mmHg 89%
    01:00 +19°C° 0 mm 3 mps 759 mmHg 91%
    02:00 +19°C° 0 mm 3 mps 759 mmHg 93%
    03:00 +20°C° 0 mm 4 mps 759 mmHg 95%
    04:00 +19°C° 0 mm 4 mps 759 mmHg 95%
    05:00 +19°C° 0 mm 4 mps 759 mmHg 96%
    06:00 +18°C° 0 mm 4 mps 759 mmHg 96%
    07:00 +20°C° 0 mm 4 mps 759 mmHg 85%
    08:00 +22°C° 0 mm 4 mps 760 mmHg 74%
    09:00 +23°C° 0 mm 4 mps 760 mmHg 63%
    10:00 +27°C° 0 mm 4 mps 760 mmHg 48%
    11:00 +30°C° 0 mm 4 mps 759 mmHg 34%
    12:00 +34°C° 0 mm 3 mps 758 mmHg 20%
    13:00 +35°C° 0 mm 4 mps 758 mmHg 18%
    14:00 +36°C° 0 mm 4 mps 757 mmHg 17%
    15:00 +37°C° 0 mm 4 mps 756 mmHg 16%
    16:00 +34°C° 0 mm 4 mps 756 mmHg 24%
    17:00 +30°C° 0 mm 3 mps 756 mmHg 32%
    18:00 +27°C° 0 mm 3 mps 756 mmHg 40%
    19:00 +25°C° 0 mm 3 mps 757 mmHg 49%
    20:00 +23°C° 0 mm 2 mps 757 mmHg 57%
    21:00 +20°C° 0 mm 2 mps 758 mmHg 66%
    22:00 +19°C° 0 mm 2 mps 758 mmHg 71%
    23:00 +19°C° 0 mm 2 mps 759 mmHg 75%

    22 Julio, Lunes

    Tiempo Temperatura Precipitaciones Viento Presión Humedad
    00:00 +19°C° 0 mm 2 mps 759 mmHg 80%
    01:00 +19°C° 0 mm 3 mps 759 mmHg 84%
    02:00 +19°C° 0 mm 3 mps 758 mmHg 88%
    03:00 +18°C° 0 mm 3 mps 758 mmHg 92%
    04:00 +18°C° 0 mm 2 mps 758 mmHg 93%
    05:00 +18°C° 0 mm 2 mps 759 mmHg 94%
    06:00 +18°C° 0 mm 2 mps 759 mmHg 95%
    07:00 +20°C° 0 mm 3 mps 759 mmHg 85%
    08:00 +22°C° 0 mm 3 mps 760 mmHg 74%
    09:00 +25°C° 0 mm 3 mps 760 mmHg 64%
    10:00 +27°C° 0 mm 3 mps 760 mmHg 49%
    11:00 +30°C° 0 mm 3 mps 759 mmHg 34%
    12:00 +34°C° 0 mm 3 mps 759 mmHg 19%
    13:00 +34°C° 0 mm 3 mps 758 mmHg 17%
    14:00 +35°C° 0 mm 3 mps 757 mmHg 16%
    15:00 +35°C° 0 mm 4 mps 756 mmHg 15%
    16:00 +31°C° 0 mm 3 mps 757 mmHg 26%
    17:00 +28°C° 0 mm 3 mps 757 mmHg 37%
    18:00 +25°C° 0 mm 2 mps 757 mmHg 47%
    19:00 +23°C° 0 mm 2 mps 757 mmHg 53%
    20:00 +21°C° 0 mm 2 mps 758 mmHg 58%
    21:00 +19°C° 0 mm 2 mps 759 mmHg 64%
    22:00 +19°C° 0 mm 2 mps 759 mmHg 70%
    23:00 +18°C° 0 mm 2 mps 759 mmHg 76%

    23 Julio, Martes

    Tiempo Temperatura Precipitaciones Viento Presión Humedad
    00:00 +18°C° 0 mm 2 mps 759 mmHg 82%
    01:00 +18°C° 0 mm 2 mps 759 mmHg 80%
    02:00 +18°C° 0 mm 2 mps 759 mmHg 78%
    03:00 +17°C° 0 mm 3 mps 759 mmHg 76%
    04:00 +17°C° 0 mm 2 mps 759 mmHg 78%
    05:00 +17°C° 0 mm 2 mps 760 mmHg 80%
    06:00 +18°C° 0 mm 1 mps 760 mmHg 82%
    07:00 +19°C° 0 mm 2 mps 760 mmHg 72%
    08:00 +21°C° 0 mm 3 mps 760 mmHg 62%
    09:00 +25°C° 0 mm 4 mps 761 mmHg 52%
    10:00 +27°C° 0 mm 4 mps 760 mmHg 40%
    11:00 +30°C° 0 mm 4 mps 760 mmHg 28%
    12:00 +34°C° 0 mm 4 mps 759 mmHg 16%
    13:00 +35°C° 0 mm 3 mps 758 mmHg 15%
    14:00 +36°C° 0 mm 3 mps 758 mmHg 14%
    15:00 +36°C° 0 mm 3 mps 757 mmHg 14%
    16:00 +32°C° 0 mm 2 mps 757 mmHg 21%
    17:00 +29°C° 0 mm 2 mps 757 mmHg 29%
    18:00 +26°C° 0 mm 2 mps 757 mmHg 36%
    19:00 +24°C° 0 mm 2 mps 758 mmHg 46%
    20:00 +23°C° 0 mm 2 mps 759 mmHg 56%
    21:00 +20°C° 0 mm 2 mps 760 mmHg 65%
    22:00 +19°C° 0 mm 2 mps 760 mmHg 62%
    23:00 +19°C° 0 mm 2 mps 760 mmHg 58%

    24 Julio, Miércoles

    Tiempo Temperatura Precipitaciones Viento Presión Humedad
    00:00 +19°C° 0 mm 3 mps 760 mmHg 55%
    01:00 +18°C° 0 mm 3 mps 760 mmHg 52%
    02:00 +18°C° 0 mm 3 mps 760 mmHg 49%
    03:00 +18°C° 0 mm 3 mps 759 mmHg 45%
    04:00 +17°C° 0 mm 3 mps 760 mmHg 47%
    05:00 +15°C° 0 mm 4 mps 760 mmHg 48%
    06:00 +15°C° 0 mm 4 mps 760 mmHg 50%
    07:00 +17°C° 0 mm 5 mps 760 mmHg 44%
    08:00 +21°C° 0 mm 5 mps 760 mmHg 39%
    09:00 +23°C° 0 mm 5 mps 761 mmHg 33%
    10:00 +27°C° 0 mm 5 mps 760 mmHg 29%
    11:00 +30°C° 0 mm 5 mps 760 mmHg 24%
    12:00 +34°C° 0 mm 5 mps 759 mmHg 20%
    13:00 +35°C° 0 mm 5 mps 759 mmHg 20%
    14:00 +36°C° 0 mm 5 mps 758 mmHg 21%
    15:00 +37°C° 0 mm 4 mps 757 mmHg 21%
    16:00 +34°C° 0 mm 4 mps 757 mmHg 29%
    17:00 +31°C° 0 mm 3 mps 758 mmHg 37%
    18:00 +28°C° 0 mm 2 mps 758 mmHg 45%
    19:00 +27°C° 0 mm 2 mps 759 mmHg 49%
    20:00 +25°C° 0 mm 2 mps 759 mmHg 53%
    21:00 +24°C° 0 mm 2 mps 760 mmHg 57%
    22:00 +23°C° 0 mm 2 mps 760 mmHg 57%
    23:00 +22°C° 0 mm 3 mps 760 mmHg 57%
    Mostrar más